Simultaneous Nadir Overpasses (SNOs) Predictions

Prediction of SNOs between AQUA and METOP-A Satellite Orbit:

Table of predicted SNOs for the next 14.0 days since TLE Epoch: 9/19/2014
Index Date (AQUA) Time (AQUA) Lat,Lon (AQUA) SZA (AQUA ) Date (METOP-A) Time (METOP-A) Lat,Lon (METOP-A) SZA (METOP-A ) Distance(km) Time Diff (sec)
1 09/20/2014 08:18:18 -73.44,-129.53 107.70 09/20/2014 08:17:08 -73.38,-130.98 107.72 46.41 70
2 09/20/2014 09:07:52 73.77, 37.40 72.66 09/20/2014 09:07:40 73.79, 37.30 72.68 3.56 12
3 09/20/2014 09:57:19 -73.85,-155.14 107.25 09/20/2014 09:58:20 -73.85,-155.21 107.25 2.27 61
4 09/23/2014 03:52:39 -73.64, -63.52 106.40 09/23/2014 03:51:26 -73.60, -64.06 106.42 17.20 73
5 09/23/2014 04:42:10 73.82, 103.73 73.80 09/23/2014 04:42:02 73.81, 103.77 73.79 1.40 8
6 09/23/2014 05:31:37 -73.89, -88.80 106.11 09/23/2014 05:32:42 -73.88, -88.74 106.13 2.59 65
7 09/25/2014 23:26:57 -73.72, 2.73 105.23 09/25/2014 23:25:46 -73.72, 2.63 105.22 3.08 71
8 09/26/2014 00:16:26 73.80, 170.20 74.87 09/26/2014 00:16:24 73.83, 170.22 74.90 3.10 2
9 09/26/2014 01:05:53 -73.87, -22.32 105.04 09/26/2014 01:07:04 -73.90, -22.28 105.02 2.77 71
10 09/28/2014 19:01:12 -73.74, 69.12 104.11 09/28/2014 19:00:07 -73.73, 69.07 104.12 1.93 65
11 09/28/2014 19:50:41 73.82,-123.42 75.99 09/28/2014 19:50:45 73.84,-123.34 76.00 2.78 4
12 09/28/2014 20:40:11 -74.05, 43.72 103.77 09/28/2014 20:41:22 -74.06, 44.52 103.78 24.45 71
13 10/01/2014 14:35:27 -73.75, 135.55 103.02 10/01/2014 14:34:29 -73.74, 135.50 103.02 1.83 58
14 10/01/2014 15:24:56 73.83, -57.01 77.09 10/01/2014 15:25:07 73.84, -56.92 77.10 2.77 11




NCC Satellite Simultaneous Nadir Overpasses (SNOs) Prediction Service
